STARLINK-31587, 59570

Orbit data source: Space-Track

STARLINK-31587, 59570 is a payload satellite owned by SpaceX/Seattle (US) in LEO that was launched on Tue, 23 Apr 2024 UTC via an FALCON 9 launch vehicle from the Air Force Eastern Test Range (AFETR). Payload-class satellites include a variety of spacecraft equipped with specific instruments for various scientific and technological missions. These include communications satellites like Starlink; space stations such as the ISS; scientific satellites like the Hubble; Earth observation satellites from companies like Planet Labs, Umbra, and HawkEye 360; GPS; miniature CubeSats for education and research; and military/defense satellites.

Loading next visibility...
Identifier
59570, 2024-076G
Orbit
LEO
Country
Flag of USUS
Related business
Manufacturer
SpaceX/Seattle
Mission
Operational Commercial Communications
Bus & Motor
STARLINK V2M, Unknown motor
Mass
730 kg wet, ~700 kg dry
Launch date (UTC)
2024-04-23 (2 years ago)
Launch vehicle
FALCON 9
Launch site
Air Force Eastern Test Range (AFETR)
Object type
Payload
Rocket body
Debris
Shape & HBR
Box + 2 Pan, 17.7 m
Radar Cross Section
33.884 m², Large (>1 m²)

Expand to show TLE details & history
Last TLE update: 13 hours ago

TLE from 13 hours ago
0 STARLINK-31587
1 59570U 24076G   25340.53285283 -.00002027  00000-0 -64194-4 0  9996
2 59570  43.0023 175.2708 0001024 283.3956  76.6782 15.27569491 92278
Epoch: 2025-12-06T12:47Z
TLE epoch observation values (Epoch: 2025-12-06T12:47:18.484Z)
Latitude
0.00002°
Longitude
-92.11543°
Altitude
482.694 km
Speed
7.626 km/s
True Right ascension
11h 41m 04s
True Declination
0° 00' 00"
Sunlit
Object was in daylight at epoch
Visualization orbit readout
Latitude
Unknown
Longitude
Unknown
Altitude
Unknown
Speed
Unknown
Apparent Right ascension
Unknown
Apparent Declination
Unknown
Sunlit
N/A
Visualization observer readout
Local Sidereal Time
23:29:47
Azimuth
Unknown
Elevation
Unknown
Doppler factor
Unknown
Orbital elements
Apogee altitude
485.728 km
Perigee altitude
484.323 km
Semi-major axis
6,863.162 km
Eccentricity
0.0001
Inclination
43.0023°
RAAN
175.2708°
Arg. of periapsis
283.3956°
True anomaly
76.68962°
Mean anomaly
76.6782°
Eccentric anomaly
76.68391°
Mean motion
3.8173 °/min
Orbital period
94.31 mins
BSTAR
-0.000064194
Loading maneuver chart data...
Computing Atmospheric mass density...
Loading historical data...
Loading historical data...
Loading historical data...
Loading historical data...
Loading historical data...
Loading historical data...
Loading historical data...

Documentation

Showing up to 5 results
|